Weather History for Watertown, SD

Change the Weather History Date:

Tuesday, November 20, 2012

  Actual Average Record
Temperature  
Mean Temperature 38 °F 27 °F  
Max Temperature 57 °F 36 °F 64 °F (1962)
Min Temperature 19 °F 18 °F -13 °F (1921)
Degree Days  
Heating Degree Days 27 38  
Month to date heating degree days 603 645  
Since 1 July heating degree days 1491 1529  
Cooling Degree Days 0 0  
Month to date cooling degree days 0 0  
Year to date cooling degree days 788 515  
Moisture  
Dew Point 26 °F    
Average Humidity 62    
Maximum Humidity 96    
Minimum Humidity 27    
Precipitation  
Precipitation 0.00 in 0.02 in 0.86 in (1947)
Month to date precipitation 0.20 0.55  
Year to date precipitation 17.44 21.34  
Snow  
Snow 0.00 in - - ()
Month to date snowfall T  
Since 1 July snowfall 0.5  
Snow Depth 0.00 in    
Sea Level Pressure  
Sea Level Pressure 30.09 in    
Wind  
Wind Speed 8 mph (SSE)    
Max Wind Speed 20 mph    
Max Gust Speed 25 mph    
Visibility 9 miles    
Events      
T = Trace of Precipitation, MM = Missing Value Source: NWS Daily Summary

Daily Weather History Graph

Daily Weather History Graph

Search for Another Location

Airport:

Trip Planner

Search our weather history database for the weather conditions in past years. The results will help you decide how hot, cold, wet, or windy it might be!

Date:

Astronomy

Nov. 20, 2012 Rise Set
Actual Time 7:33 AM CST 4:54 PM CST
Civil Twilight 7:01 AM CST 5:27 PM CST
Nautical Twilight 6:25 AM CST 6:03 PM CST
Astronomical Twilight 5:50 AM CST 6:37 PM CST
Moon 12:59 PM CST (11/20) No Moon Set
Length of Visible Light 10h 26m
Length of Day
9h 21m
First Quarter, 51% of the Moon is Illuminated
Nov 20
First Quarter
Nov 28
Full
Dec 6
Last Quarter
Dec 13
New
Dec 19
First Quarter

Hourly Weather History & Observations

Time (CST) Temp. Windchill Dew Point Humidity Pressure Visibility Wind Dir Wind Speed Gust Speed Precip Events Conditions
12:53 AM 26.1 °F 19.4 °F 24.1 °F 92% 30.19 in 5.0 mi North 5.8 mph - N/A   Clear
2:53 AM 24.1 °F - 21.0 °F 88% 30.20 in 5.0 mi Calm Calm - N/A   Clear
3:53 AM 23.0 °F - 19.9 °F 88% 30.19 in 6.0 mi Calm Calm - N/A   Clear
4:53 AM 23.0 °F - 21.0 °F 92% 30.19 in 7.0 mi Calm Calm - N/A   Clear
5:53 AM 23.0 °F - 21.0 °F 92% 30.19 in 6.0 mi Calm Calm - N/A   Clear
6:53 AM 21.9 °F - 19.0 °F 89% 30.21 in 7.0 mi Calm Calm - N/A   Clear
7:53 AM 24.1 °F 19.7 °F 21.0 °F 88% 30.20 in 7.0 mi SSE 3.5 mph - N/A   Clear
8:53 AM 32.0 °F 26.4 °F 27.0 °F 82% 30.18 in 9.0 mi SSE 5.8 mph - N/A   Clear
9:53 AM 37.9 °F 32.1 °F 30.0 °F 73% 30.19 in 10.0 mi South 8.1 mph - N/A   Clear
10:53 AM 44.1 °F 38.6 °F 28.0 °F 53% 30.17 in 10.0 mi SSE 10.4 mph - N/A   Clear
11:53 AM 50.0 °F - 27.0 °F 41% 30.14 in 10.0 mi South 12.7 mph - N/A   Clear
12:53 PM 52.0 °F - 27.0 °F 38% 30.10 in 10.0 mi SSE 13.8 mph - N/A   Clear
1:53 PM 55.9 °F - 23.0 °F 28% 30.06 in 10.0 mi South 16.1 mph - N/A   Clear
2:53 PM 55.9 °F - 23.0 °F 28% 30.02 in 10.0 mi South 18.4 mph 25.3 mph N/A   Clear
3:53 PM 54.0 °F - 25.0 °F 33% 30.01 in 10.0 mi South 15.0 mph - N/A   Clear
4:53 PM 50.0 °F - 27.0 °F 41% 30.02 in 10.0 mi South 11.5 mph - N/A   Clear
5:53 PM 48.0 °F - 28.0 °F 46% 30.01 in 10.0 mi South 12.7 mph - N/A   Clear
6:53 PM 44.1 °F 39.5 °F 28.0 °F 53% 30.02 in 10.0 mi South 8.1 mph - N/A   Clear
7:53 PM 42.1 °F 36.6 °F 28.0 °F 58% 30.00 in 10.0 mi South 9.2 mph - N/A   Clear
8:53 PM 42.1 °F 36.6 °F 28.9 °F 60% 29.98 in 10.0 mi SSE 9.2 mph - N/A   Clear
9:53 PM 41.0 °F 34.7 °F 30.0 °F 65% 29.96 in 10.0 mi South 10.4 mph - N/A   Clear
10:53 PM 39.0 °F 34.0 °F 30.9 °F 73% 29.96 in 10.0 mi SSE 6.9 mph - N/A   Clear
11:53 PM 39.0 °F 33.4 °F 30.9 °F 73% 29.94 in 10.0 mi SSE 8.1 mph - N/A   Clear